EW5956 Weather Reports


time (UTC)temp
C
wind
direction
speed
KPH
gust
KPH
rain 1hr
cm
rain 24hr
cm
rain mn
cm
humidity
%
barometer
mb
20260504020605 12 246 1.6 1.6 0.00 0.00 0.00 77 1017.8
20260504020113 12 242 0.0 1.6 0.00 0.00 0.00 76 1017.8
20260504015606 12 253 1.6 3.2 0.00 0.00 0.00 76 1017.6
20260504015105 12 232 0.0 1.6 0.00 0.00 0.00 75 1017.6
20260504014607 12 238 0.0 1.6 0.00 0.00 0.00 74 1017.6
20260504014105 12 213 1.6 3.2 0.00 0.00 0.00 74 1017.6
20260504013605 12 205 1.6 3.2 0.00 0.00 0.00 75 1017.6
20260504012605 12 198 1.6 1.6 0.00 0.00 0.00 75 1017.5
20260504012105 12 227 0.0 1.6 0.00 0.00 0.00 76 1017.4
20260504011606 12 219 0.0 1.6 0.00 0.00 0.00 78 1017.6
20260504011106 12 211 1.6 3.2 0.00 0.00 0.00 79 1017.3
20260504010606 12 227 0.0 1.6 0.00 0.00 0.00 80 1017.6
20260504010114 13 233 0.0 0.0 0.00 0.00 0.00 79 1017.3
20260504005605 13 231 1.6 3.2 0.00 0.00 0.00 78 1017.3
20260504005105 13 225 1.6 1.6 0.00 0.00 0.00 79 1017.3
20260504004605 12 236 1.6 1.6 0.00 0.00 0.00 79 1017.3
20260504004106 13 265 1.6 4.8 0.00 0.00 0.00 78 1017.4
20260504003605 13 250 1.6 3.2 0.00 0.00 0.00 76 1017.6
20260504003105 13 239 1.6 3.2 0.00 0.00 0.00 75 1017.3
20260504002606 13 246 0.0 1.6 0.00 0.00 0.00 75 1017.3
20260504002106 13 239 0.0 1.6 0.00 0.00 0.00 75 1017.3
20260504001605 13 245 1.6 3.2 0.00 0.00 0.00 75 1017.3
20260504001105 13 254 1.6 1.6 0.00 0.00 0.00 76 1017.2
20260504000605 13 229 0.0 1.6 0.00 0.00 0.00 75 1017.3
20260504000114 13 230 0.0 1.6 0.00 0.00 0.00 74 1017.3
20260503235605 13 216 1.6 1.6 0.00 0.00 0.00 74 1017.3
20260503235105 13 227 0.0 1.6 0.00 0.00 0.00 75 1017.0
20260503234605 13 227 1.6 1.6 0.00 0.00 0.00 75 1017.1
20260503234105 13 227 0.0 1.6 0.00 0.00 0.00 73 1016.9
20260503233605 13 227 0.0 1.6 0.00 0.00 0.00 72 1016.9
20260503233105 13 215 1.6 1.6 0.00 0.00 0.00 70 1016.9
20260503232605 14 233 1.6 3.2 0.00 0.00 0.00 69 1016.9
20260503232105 15 234 1.6 3.2 0.00 0.00 0.00 67 1016.9
20260503231606 15 267 3.2 3.2 0.00 0.00 0.00 68 1017.0
20260503231105 14 233 0.0 1.6 0.00 0.00 0.00 67 1017.0
20260503230606 14 230 0.0 1.6 0.00 0.00 0.00 67 1016.7
20260503230114 14 215 1.6 3.2 0.00 0.00 0.00 67 1016.7
20260503225605 14 215 1.6 3.2 0.00 0.00 0.00 68 1016.9
20260503225105 15 225 0.0 1.6 0.00 0.00 0.00 66 1016.8
20260503224605 15 225 1.6 1.6 0.00 0.00 0.00 64 1016.6
20260503224108 16 238 1.6 1.6 0.00 0.00 0.00 63 1016.8
20260503222605 16 184 3.2 4.8 0.00 0.00 0.00 62 1016.6
20260503222105 15 109 1.6 4.8 0.00 0.00 0.00 66 1016.8
20260503221605 14 214 1.6 4.8 0.00 0.00 0.00 70 1016.6
20260503221105 14 219 0.0 1.6 0.00 0.00 0.00 69 1016.9
20260503220605 14 219 0.0 1.6 0.00 0.00 0.00 68 1016.9
20260503215606 15 238 1.6 1.6 0.00 0.00 0.00 67 1016.9
20260503215105 15 237 1.6 3.2 0.00 0.00 0.00 65 1016.9
20260503214605 15 219 1.6 1.6 0.00 0.00 0.00 67 1016.8
20260503214105 15 244 1.6 3.2 0.00 0.00 0.00 67 1016.6
20260503213105 16 234 1.6 1.6 0.00 0.00 0.00 63 1016.9
20260503212606 16 247 0.0 1.6 0.00 0.00 0.00 59 1016.8
20260503212105 16 266 1.6 3.2 0.00 0.00 0.00 59 1016.4
20260503211605 16 221 0.0 1.6 0.00 0.00 0.00 60 1016.8
20260503211105 16 219 1.6 1.6 0.00 0.00 0.00 59 1016.6
20260503210606 15 225 0.0 0.0 0.00 0.00 0.00 61 1016.6
20260503210114 16 225 0.0 1.6 0.00 0.00 0.00 60 1016.6
20260503205605 16 226 0.0 1.6 0.00 0.00 0.00 61 1016.8
20260503205105 16 228 0.0 1.6 0.00 0.00 0.00 59 1016.6
20260503204606 17 225 0.0 3.2 0.00 0.00 0.00 56 1016.8
20260503204105 17 269 1.6 3.2 0.00 0.00 0.00 54 1016.6
20260503203605 16 319 3.2 3.2 0.00 0.00 0.00 55 1016.6
20260503203105 16 206 1.6 3.2 0.00 0.00 0.00 56 1016.6
20260503202604 17 184 1.6 3.2 0.00 0.00 0.00 55 1016.9
20260503202105 17 232 0.0 0.0 0.00 0.00 0.00 54 1016.8
20260503201605 17 242 1.6 1.6 0.00 0.00 0.00 52 1016.9
20260503200605 18 208 1.6 3.2 0.00 0.00 0.00 52 1016.9
20260503200113 17 154 1.6 3.2 0.00 0.00 0.00 52 1016.7
20260503195606 18 220 0.0 1.6 0.00 0.00 0.00 52 1016.7
20260503195106 18 235 0.0 3.2 0.00 0.00 0.00 51 1016.9
20260503194105 18 274 1.6 4.8 0.00 0.00 0.00 62 1016.9
20260503193605 18 273 4.8 9.7 0.00 0.00 0.00 62 1016.9
20260503193105 18 267 3.2 9.7 0.00 0.00 0.00 62 1017.1
20260503192605 17 267 3.2 4.8 0.00 0.00 0.00 62 1016.9
20260503192106 17 257 3.2 4.8 0.00 0.00 0.00 64 1017.1
20260503191606 17 243 1.6 3.2 0.00 0.00 0.00 63 1017.0
20260503191105 17 243 1.6 1.6 0.00 0.00 0.00 65 1016.9
20260503190605 17 231 0.0 0.0 0.00 0.00 0.00 54 1016.8
20260503190113 18 231 0.0 1.6 0.00 0.00 0.00 54 1016.9
20260503185605 18 219 1.6 1.6 0.00 0.00 0.00 54 1016.9
20260503185107 19 246 3.2 8.0 0.00 0.00 0.00 54 1016.6
20260503184607 19 272 4.8 8.0 0.00 0.00 0.00 55 1016.6
20260503184105 19 262 4.8 8.0 0.00 0.00 0.00 57 1016.5
20260503183605 19 253 3.2 3.2 0.00 0.00 0.00 55 1016.3
20260503183105 19 249 1.6 4.8 0.00 0.00 0.00 54 1016.4
20260503181105 20 256 4.8 11.3 0.00 0.00 0.00 54 1016.3
20260503180605 20 270 6.4 9.7 0.00 0.00 0.00 53 1016.0
20260503180114 20 279 3.2 8.0 0.00 0.00 0.00 54 1016.3
20260503175606 20 255 3.2 4.8 0.00 0.00 0.00 55 1016.3
20260503175105 20 270 4.8 8.0 0.00 0.00 0.00 55 1016.3
20260503174605 20 262 4.8 8.0 0.00 0.00 0.00 55 1015.9
20260503174105 20 257 4.8 11.3 0.00 0.00 0.00 55 1015.9
20260503173606 21 269 8.0 11.3 0.00 0.00 0.00 53 1015.9
20260503173105 21 258 8.0 12.9 0.00 0.00 0.00 49 1015.9
20260503172605 21 248 8.0 12.9 0.00 0.00 0.00 49 1015.9
20260503172106 21 258 6.4 11.3 0.00 0.00 0.00 50 1015.9
20260503171105 21 251 4.8 8.0 0.00 0.00 0.00 52 1015.9
20260503160113 22 223 12.9 19.3 0.00 0.00 0.00 48 1015.9
20260503150605 21 262 19.3 27.4 0.00 0.00 0.00 50 1015.9
20260503150113 22 238 20.9 29.0 0.00 0.00 0.00 48 1015.9
20260503131105 21 251 22.5 35.4 0.00 0.00 0.00 47 1016.9
20260503130605 21 231 22.5 27.4 0.00 0.00 0.00 46 1016.9
20260503130113 22 249 25.7 33.8 0.00 0.00 0.00 46 1016.9
20260503120113 22 232 19.3 25.7 0.00 0.00 0.00 42 1017.6
20260503110605 21 251 25.7 32.2 0.00 0.00 0.00 44 1017.8
20260503110114 21 256 12.9 25.7 0.00 0.00 0.00 44 1017.7
20260503100114 21 237 9.7 16.1 0.00 0.00 0.00 55 1018.5
20260503090114 22 244 12.9 19.3 0.00 0.00 0.00 46 1018.6
20260503081106 21 258 6.4 12.9 0.00 0.00 0.00 47 1018.9
20260503080605 21 260 4.8 12.9 0.00 0.00 0.00 48 1018.6
20260503072605 19 265 8.0 11.3 0.00 0.00 0.00 52 1019.0
20260503072106 18 277 6.4 11.3 0.00 0.00 0.00 51 1019.0
20260503071105 18 270 8.0 11.3 0.00 0.00 0.00 52 1019.0
20260503070114 18 250 8.0 11.3 0.00 0.00 0.00 52 1019.0
20260503060114 16 216 1.6 1.6 0.00 0.00 0.00 61 1019.0
20260503055107 17 236 0.0 0.0 0.00 0.00 0.00 68 1018.6
20260503054606 17 236 0.0 0.0 0.00 0.00 0.00 68 1018.9
20260503054106 15 236 0.0 0.0 0.00 0.00 0.00 68 1018.9
20260503053604 14 236 0.0 1.6 0.00 0.00 0.00 69 1018.8
20260503053104 14 238 1.6 3.2 0.00 0.00 0.00 69 1018.6
20260503052605 14 220 0.0 1.6 0.00 0.00 0.00 78 1018.8
20260503051604 12 243 0.0 1.6 0.00 0.00 0.00 78 1018.6
20260503051105 11 246 1.6 3.2 0.00 0.00 0.00 78 1018.6
20260503050605 11 242 1.6 3.2 0.00 0.00 0.00 79 1018.7
20260503050114 11 231 0.0 1.6 0.00 0.00 0.00 78 1018.7
20260503045605 11 213 1.6 1.6 0.00 0.00 0.00 79 1019.0
20260503045105 11 249 0.0 0.0 0.00 0.00 0.00 82 1018.6
20260503044605 11 249 0.0 0.0 0.00 0.00 0.00 83 1018.9
20260503044106 10 251 1.6 3.2 0.00 0.00 0.00 84 1018.7
20260503043605 10 246 1.6 3.2 0.00 0.00 0.00 84 1019.0
20260503043105 10 251 1.6 3.2 0.00 0.00 0.00 84 1018.7
20260503042605 10 247 1.6 3.2 0.00 0.00 0.00 83 1018.7
20260503042105 10 243 1.6 1.6 0.00 0.00 0.00 83 1018.6
20260503041605 10 242 0.0 1.6 0.00 0.00 0.00 84 1018.6
20260503041106 10 229 0.0 1.6 0.00 0.00 0.00 84 1018.5
20260503040606 10 247 1.6 3.2 0.00 0.00 0.00 84 1018.6
20260503040114 9 242 0.0 4.8 0.00 0.00 0.00 84 1018.6
20260503035605 9 269 3.2 4.8 0.00 0.00 0.00 83 1018.6
20260503034605 9 259 1.6 3.2 0.00 0.00 0.00 83 1018.6
20260503034105 9 230 0.0 1.6 0.00 0.00 0.00 83 1018.5
20260503033605 9 228 0.0 1.6 0.00 0.00 0.00 83 1018.3
20260503033105 9 228 0.0 1.6 0.00 0.00 0.00 83 1018.5
20260503032605 9 231 0.0 1.6 0.00 0.00 0.00 83 1018.6
20260503032105 9 223 1.6 3.2 0.00 0.00 0.00 83 1018.6
20260503031606 10 233 1.6 1.6 0.00 0.00 0.00 82 1018.6
20260503031105 10 218 1.6 3.2 0.00 0.00 0.00 82 1018.6
20260503030606 10 221 1.6 3.2 0.00 0.00 0.00 82 1018.8
20260503030114 10 207 1.6 3.2 0.00 0.00 0.00 82 1018.7
20260503025605 10 236 1.6 3.2 0.00 0.00 0.00 81 1018.6
20260503025105 11 272 1.6 3.2 0.00 0.00 0.00 80 1018.8
20260503024605 11 224 1.6 3.2 0.00 0.00 0.00 79 1018.6
20260503024104 11 222 1.6 4.8 0.00 0.00 0.00 79 1018.6
20260503023605 11 141 3.2 4.8 0.00 0.00 0.00 79 1018.8
20260503023105 11 229 0.0 0.0 0.00 0.00 0.00 80 1018.7
20260503022606 11 229 0.0 0.0 0.00 0.00 0.00 80 1019.0
20260503022105 10 229 0.0 0.0 0.00 0.00 0.00 80 1019.0
20260503021105 10 229 0.0 0.0 0.00 0.00 0.00 80 1019.0